IW2LSY-11 Weather Reports


Display with metric or nautical units.
time (UTC)temp
F
wind
direction
speed
MPH
gust
MPH
rain 1hr
in
rain 24hr
in
rain mn
in
humidity
%
barometer
mb
20260902173014 79 237 0.0 0.0 0.00 0.00 0.00 46 1017.1
20260902172011 78 237 0.0 0.0 0.00 0.00 0.00 47 1017.0
20260902171016 79 237 0.0 0.0 0.00 0.00 0.00 45 1016.9
20260902170016 81 237 0.0 0.0 0.00 0.00 0.00 40 1016.8
20260902165016 82 237 0.0 0.0 0.00 0.00 0.00 41 1016.7
20260902164015 82 237 0.0 0.0 0.00 0.00 0.00 39 1016.6
20260902163016 84 237 0.0 0.0 0.00 0.00 0.00 36 1016.4
20260902162016 85 237 0.0 0.0 0.00 0.00 0.00 34 1016.4
20260902161016 86 237 0.0 0.0 0.00 0.00 0.00 33 1016.3
20260902160016 86 237 0.0 0.0 0.00 0.00 0.00 34 1016.5
20260902155015 86 237 0.0 0.0 0.00 0.00 0.00 33 1016.4
20260902154015 87 237 0.0 0.0 0.00 0.00 0.00 32 1016.4
20260902153015 87 237 0.0 0.0 0.00 0.00 0.00 34 1016.4
20260902152016 87 237 0.0 0.0 0.00 0.00 0.00 33 1016.4
20260902151016 87 237 0.0 0.0 0.00 0.00 0.00 35 1016.5
20260902150015 86 237 0.0 0.0 0.00 0.00 0.00 39 1016.6
20260902145016 88 237 0.0 0.0 0.00 0.00 0.00 37 1016.7
20260902144016 86 237 0.0 0.0 0.00 0.00 0.00 34 1016.7
20260902143015 88 237 0.0 0.0 0.00 0.00 0.00 33 1016.9
20260902142016 88 237 0.0 0.0 0.00 0.00 0.00 32 1017.0
20260902141016 87 237 0.0 0.0 0.00 0.00 0.00 31 1016.9
20260902140016 87 237 0.0 0.0 0.00 0.00 0.00 32 1017.1
20260902135017 89 237 0.0 0.0 0.00 0.00 0.00 35 1017.3
20260902134016 87 237 0.0 0.0 0.00 0.00 0.00 34 1017.3
20260902133020 86 237 0.0 0.0 0.00 0.00 0.00 35 1017.4
20260902132015 86 237 0.0 0.0 0.00 0.00 0.00 35 1017.5
20260902131015 86 237 0.0 0.0 0.00 0.00 0.00 36 1017.7
20260902130014 86 237 0.0 0.0 0.00 0.00 0.00 36 1017.8
20260902125015 86 237 0.0 0.0 0.00 0.00 0.00 37 1018.0
20260902124014 86 237 0.0 0.0 0.00 0.00 0.00 38 1018.2
20260902123014 86 237 0.0 0.0 0.00 0.00 0.00 39 1018.3
20260902122014 86 237 0.0 0.0 0.00 0.00 0.00 39 1018.3
20260902121014 86 237 0.0 0.0 0.00 0.00 0.00 38 1018.3
20260902120013 87 237 0.0 0.0 0.00 0.00 0.00 39 1018.5
20260902115013 84 237 0.0 0.0 0.00 0.00 0.00 41 1018.6
20260902114013 84 237 0.0 0.0 0.00 0.00 0.00 39 1018.7
20260902113013 86 237 0.0 0.0 0.00 0.00 0.00 39 1018.7
20260902111013 86 237 0.0 0.0 0.00 0.00 0.00 40 1018.9
20260902110013 85 237 0.0 0.0 0.00 0.00 0.00 41 1019.0
20260902105014 83 237 0.0 0.0 0.00 0.00 0.00 41 1019.3
20260902104013 83 237 0.0 0.0 0.00 0.00 0.00 41 1019.6
20260902100014 82 237 0.0 0.0 0.00 0.00 0.00 44 1020.1
20260902094013 79 237 0.0 0.0 0.00 0.00 0.00 46 1020.5
20260902093014 79 237 0.0 0.0 0.00 0.00 0.00 46 1020.6
20260902092014 79 237 0.0 0.0 0.00 0.00 0.00 50 1020.7
20260902091014 80 237 0.0 0.0 0.00 0.00 0.00 47 1020.7
20260902085014 77 237 0.0 0.0 0.00 0.00 0.00 52 1021.1
20260902084014 78 237 0.0 0.0 0.00 0.00 0.00 55 1021.1
20260902083015 77 237 0.0 0.0 0.00 0.00 0.00 56 1021.0
20260902082015 78 237 0.0 0.0 0.00 0.00 0.00 53 1020.8
20260902081015 78 237 0.0 0.0 0.00 0.00 0.00 53 1020.8
20260902080015 79 237 0.0 0.0 0.00 0.00 0.00 50 1020.8
20260902075014 76 237 0.0 0.0 0.00 0.00 0.00 52 1020.8
20260902074014 76 237 0.0 0.0 0.00 0.00 0.00 58 1020.9
20260902073014 75 237 0.0 0.0 0.00 0.00 0.00 59 1020.9
20260902072014 77 237 0.0 0.0 0.00 0.00 0.00 55 1021.0
20260902071013 73 237 0.0 0.0 0.00 0.00 0.00 64 1020.9
20260902070013 72 237 0.0 0.0 0.00 0.00 0.00 66 1021.0
20260902065013 71 237 0.0 0.0 0.00 0.00 0.00 70 1021.1
20260902064012 70 237 0.0 0.0 0.00 0.00 0.00 72 1021.1
20260902063011 69 237 0.0 0.0 0.00 0.00 0.00 75 1021.1
20260902062012 72 237 0.0 0.0 0.00 0.00 0.00 71 1021.0
20260902061011 68 237 0.0 0.0 0.00 0.00 0.00 84 1021.0
20260902060011 66 237 0.0 0.0 0.00 0.00 0.00 93 1021.1
20260902055011 65 237 0.0 0.0 0.00 0.00 0.00 93 1021.0
20260902054010 66 237 0.0 0.0 0.00 0.00 0.00 91 1020.9
20260902053010 65 237 0.0 0.0 0.00 0.00 0.00 93 1020.8
20260902052010 65 237 0.0 0.0 0.00 0.00 0.00 92 1020.7
20260902051010 66 237 0.0 0.0 0.00 0.00 0.00 91 1020.7
20260902050010 65 237 0.0 0.0 0.00 0.00 0.00 93 1020.7
20260902045010 65 237 0.0 0.0 0.00 0.00 0.00 96 1020.6
20260902044021 64 237 0.0 0.0 0.00 0.00 0.00 10 1020.6
20260902043020 65 237 0.0 0.0 0.00 0.00 0.00 98 1020.4
20260902042020 65 237 0.0 0.0 0.00 0.00 0.00 95 1020.4
20260902040009 66 237 0.0 0.0 0.00 0.00 0.00 93 1020.4
20260902035021 64 237 0.0 0.0 0.00 0.00 0.00 99 1020.4
20260902034020 65 237 0.0 0.0 0.00 0.00 0.00 95 1020.4
20260902033020 66 237 0.0 0.0 0.00 0.00 0.00 91 1020.3
20260902032020 65 237 0.0 0.0 0.00 0.00 0.00 95 1020.3
20260902030020 65 237 0.0 0.0 0.00 0.00 0.00 99 1020.4
20260902025009 65 237 0.0 0.0 0.00 0.00 0.00 98 1020.4
20260902024021 65 237 0.0 0.0 0.00 0.00 0.00 98 1020.4
20260902023020 65 237 0.0 0.0 0.00 0.00 0.00 93 1020.5
20260902022009 66 237 0.0 0.0 0.00 0.00 0.00 90 1020.4
20260902021021 65 237 0.0 0.0 0.00 0.00 0.00 95 1020.3
20260902015020 66 237 0.0 0.0 0.00 0.00 0.00 92 1020.3
20260902014020 66 237 0.0 0.0 0.00 0.00 0.00 91 1020.3
20260902013019 67 237 0.0 0.0 0.00 0.00 0.00 88 1020.3
20260902012019 66 237 0.0 0.0 0.00 0.00 0.00 90 1020.3
20260902011021 66 237 0.0 0.0 0.00 0.00 0.00 91 1020.3
20260902010018 67 237 0.0 0.0 0.00 0.00 0.00 86 1020.3
20260902005018 67 237 0.0 0.0 0.00 0.00 0.00 87 1020.2
20260902004018 67 237 0.0 0.0 0.00 0.00 0.00 87 1020.2
20260902003018 66 237 0.0 0.0 0.00 0.00 0.00 90 1020.2
20260902002017 67 237 0.0 0.0 0.00 0.00 0.00 89 1020.2
20260902001016 67 237 0.0 0.0 0.00 0.00 0.00 89 1020.3
20260902000016 67 237 0.0 0.0 0.00 0.00 0.00 87 1020.3
20260901235015 67 237 0.0 0.0 0.00 0.00 0.00 89 1020.2
20260901234015 67 237 0.0 0.0 0.00 0.00 0.00 91 1020.2
20260901233016 67 237 0.0 0.0 0.00 0.00 0.00 88 1020.3
20260901232015 68 237 0.0 0.0 0.00 0.00 0.00 83 1020.4
20260901231015 68 237 0.0 0.0 0.00 0.00 0.00 84 1020.3
20260901230014 68 237 0.0 0.0 0.00 0.00 0.00 83 1020.3
20260901225014 68 244 0.0 0.0 0.00 0.00 0.00 82 1020.4
20260901224014 68 244 0.0 0.0 0.00 0.00 0.00 83 1020.3
20260901223013 68 244 0.0 0.0 0.00 0.00 0.00 82 1020.1
20260901222012 69 244 0.0 0.0 0.00 0.00 0.00 80 1020.2
20260901221012 68 244 0.0 0.0 0.00 0.00 0.00 82 1020.2
20260901220011 68 244 0.0 0.0 0.00 0.00 0.00 81 1020.3
20260901215012 69 244 0.0 0.0 0.00 0.00 0.00 77 1020.2
20260901214011 70 244 0.0 0.0 0.00 0.00 0.00 74 1020.1
20260901213011 69 244 0.0 0.0 0.00 0.00 0.00 76 1020.0
20260901212013 70 244 0.0 0.0 0.00 0.00 0.00 73 1019.9
20260901211010 69 244 0.0 0.0 0.00 0.00 0.00 76 1019.9
20260901210010 70 244 0.0 0.0 0.00 0.00 0.00 72 1019.9
20260901205020 71 244 0.0 0.0 0.00 0.00 0.00 71 1019.8
20260901204009 71 244 0.0 0.0 0.00 0.00 0.00 72 1019.7
20260901203020 70 244 0.0 0.0 0.00 0.00 0.00 71 1019.7
20260901201020 72 244 0.0 0.0 0.00 0.00 0.00 68 1019.4
20260901200020 72 244 0.0 0.0 0.00 0.00 0.00 68 1019.3
20260901195019 71 244 0.0 0.0 0.00 0.00 0.00 69 1019.1
20260901194020 72 244 0.0 0.0 0.00 0.00 0.00 69 1019.0
20260901193009 73 244 0.0 0.0 0.00 0.00 0.00 66 1018.9
20260901192015 73 244 0.0 0.0 0.00 0.00 0.00 65 1018.8
20260901191015 73 244 0.0 0.0 0.00 0.00 0.00 65 1018.7
20260901190014 74 244 0.0 0.0 0.00 0.00 0.00 64 1018.6
20260901185014 75 244 0.0 0.0 0.00 0.00 0.00 62 1018.5
20260901184014 75 244 0.0 0.0 0.00 0.00 0.00 61 1018.4
20260901183013 75 244 0.0 0.0 0.00 0.00 0.00 59 1018.2
20260901182011 75 244 0.0 0.0 0.00 0.00 0.00 59 1018.0
20260901181011 76 244 0.0 0.0 0.00 0.00 0.00 57 1017.8
20260901180012 77 244 0.0 0.0 0.00 0.00 0.00 49 1017.6
20260901175012 79 244 0.0 0.0 0.00 0.00 0.00 48 1017.4
20260901174012 78 244 0.0 0.0 0.00 0.00 0.00 50 1017.3